Rome, GA

1:36 PM EST on November 24, 2017 (GMT -0500)
Russell

Weather History for KRMG - December, 2013

Change the Weather History Date:

Saturday, December 21, 2013

  Actual Average Record
Temperature  
Mean Temperature 63 °F 42 °F  
Max Temperature 73 °F 52 °F 73 °F (2013)
Min Temperature 53 °F 31 °F 18 °F (2003)
Degree Days  
Heating Degree Days 2 23  
Month to date heating degree days 390 454  
Since 1 July heating degree days 1025 1061  
Growing Degree Days 13 (Base 50)    
Moisture  
Dew Point 60 °F    
Average Humidity 89    
Maximum Humidity 100    
Minimum Humidity 78    
Precipitation  
Precipitation 0.36 in 0.11 in 0.55 in (1997)
Month to date precipitation 5.06 3.40  
Year to date precipitation 50.94  
Snow  
Snow 0.00 in - - ()
Month to date snowfall 0.0  
Since 1 July snowfall 0.0  
Snow Depth 0.00 in    
Sea Level Pressure  
Sea Level Pressure 29.94 in    
Wind  
Wind Speed 7 mph (SSE)    
Max Wind Speed 17 mph    
Max Gust Speed 26 mph    
Visibility 9 miles    
Events Rain    
T = Trace of Precipitation, MM = Missing Value Source: NWS Daily Summary

Daily Weather History Graph

Daily Weather History Graph

Search for Another Location

Airport or City:

Trip Planner

Search our weather history database for the weather conditions in past years. The results will help you decide how hot, cold, wet, or windy it might be!

Date:

Astronomy

Dec. 21, 2013 Rise Set
Actual Time 7:43 AM EST 5:34 PM EST
Civil Twilight 7:15 AM EST 6:02 PM EST
Nautical Twilight 6:43 AM EST 6:34 PM EST
Astronomical Twilight 6:13 AM EST 7:04 PM EST
Moon 9:40 PM EST (12/21) 10:17 AM EST (12/21)
Length of Visible Light 10h 47m
Length of Day
9h 51m
Waning Gibbous, 84% of the Moon is Illuminated
Dec 21
Waning Gibbous
Dec 25
Last Quarter
Jan 1
New
Jan 7
First Quarter
Jan 15
Full

Hourly Weather History & Observations

Time (EST) Temp. Dew Point Humidity Pressure Visibility Wind Dir Wind Speed Gust Speed Precip Events Conditions
12:53 AM 57.0 °F 51.1 °F 81% 30.06 in 10.0 mi SSE 3.5 mph - N/A   Overcast
1:53 AM 55.9 °F 52.0 °F 87% 30.05 in 10.0 mi Calm Calm - N/A   Overcast
2:50 AM 57.2 °F 51.8 °F 82% 30.05 in 10.0 mi Calm Calm - N/A   Overcast
2:53 AM 55.9 °F 52.0 °F 87% 30.04 in 10.0 mi Calm Calm - N/A   Overcast
3:53 AM 55.0 °F 52.0 °F 89% 30.02 in 10.0 mi Calm Calm - N/A   Partly Cloudy
4:53 AM 55.0 °F 53.1 °F 93% 30.02 in 10.0 mi Calm Calm - N/A   Overcast
5:53 AM 57.0 °F 54.0 °F 89% 30.01 in 10.0 mi SE 4.6 mph - N/A   Overcast
6:05 AM 57.2 °F 53.6 °F 88% 30.02 in 10.0 mi SE 4.6 mph - N/A   Overcast
6:33 AM 57.2 °F 55.4 °F 94% 30.01 in 10.0 mi SE 4.6 mph - N/A   Overcast
6:53 AM 57.9 °F 55.0 °F 90% 29.99 in 10.0 mi SE 4.6 mph - N/A   Overcast
7:46 AM 57.2 °F 55.4 °F 94% 30.00 in 10.0 mi SSE 5.8 mph - N/A   Overcast
7:53 AM 57.9 °F 55.9 °F 93% 29.99 in 10.0 mi SSE 5.8 mph - N/A   Overcast
8:34 AM 60.8 °F 57.2 °F 88% 30.00 in 9.0 mi SSE 5.8 mph - N/A   Overcast
8:53 AM 60.1 °F 57.9 °F 93% 29.98 in 10.0 mi SSE 6.9 mph - N/A   Overcast
9:09 AM 60.8 °F 59.0 °F 94% 29.99 in 6.0 mi SSE 3.5 mph - 0.00 in Rain Light Rain
9:49 AM 60.8 °F 60.8 °F 100% 29.99 in 10.0 mi SSE 6.9 mph - 0.00 in   Overcast
9:53 AM 61.0 °F 60.1 °F 97% 29.98 in 10.0 mi SSE 6.9 mph - 0.00 in   Overcast
10:53 AM 64.0 °F 61.0 °F 90% 29.95 in 10.0 mi SSE 11.5 mph - N/A   Overcast
11:53 AM 66.9 °F 63.0 °F 87% 29.93 in 10.0 mi South 8.1 mph - N/A   Overcast
12:53 PM 70.0 °F 63.0 °F 78% 29.91 in 10.0 mi South 15.0 mph 20.7 mph N/A   Overcast
1:53 PM 70.0 °F 64.0 °F 81% 29.88 in 10.0 mi South 13.8 mph - N/A   Overcast
2:53 PM 71.1 °F 64.0 °F 78% 29.87 in 10.0 mi SSE 13.8 mph - N/A   Overcast
3:03 PM 71.6 °F 64.4 °F 78% 29.88 in 10.0 mi South 15.0 mph - N/A   Overcast
3:16 PM 71.6 °F 64.4 °F 78% 29.88 in 10.0 mi South 12.7 mph - N/A   Overcast
3:53 PM 72.0 °F 64.0 °F 76% 29.86 in 10.0 mi South 11.5 mph - N/A   Mostly Cloudy
4:16 PM 71.6 °F 64.4 °F 78% 29.88 in 10.0 mi South 11.5 mph - N/A   Overcast
4:33 PM 71.6 °F 64.4 °F 78% 29.88 in 10.0 mi South 12.7 mph 20.7 mph N/A   Mostly Cloudy
4:53 PM 72.0 °F 64.0 °F 76% 29.86 in 10.0 mi South 10.4 mph 20.7 mph N/A   Overcast
5:25 PM 71.6 °F 64.4 °F 78% 29.87 in 10.0 mi SSE 12.7 mph 21.9 mph N/A   Mostly Cloudy
5:39 PM 71.6 °F 64.4 °F 78% 29.87 in 10.0 mi SSE 10.4 mph - N/A   Mostly Cloudy
5:53 PM 70.0 °F 64.0 °F 81% 29.86 in 10.0 mi SSE 10.4 mph - N/A   Mostly Cloudy
6:03 PM 69.8 °F 64.4 °F 83% 29.88 in 10.0 mi South 8.1 mph - N/A   Mostly Cloudy
6:10 PM 69.8 °F 64.4 °F 83% 29.88 in 10.0 mi South 6.9 mph - N/A   Overcast
6:26 PM 69.8 °F 64.4 °F 83% 29.89 in 10.0 mi South 10.4 mph 18.4 mph N/A   Overcast
6:53 PM 71.1 °F 64.0 °F 78% 29.87 in 10.0 mi South 12.7 mph 17.3 mph N/A   Overcast
7:53 PM 70.0 °F 64.0 °F 81% 29.87 in 10.0 mi SSE 8.1 mph - N/A   Overcast
8:06 PM 68.0 °F 66.2 °F 94% 29.89 in 1.8 mi South 9.2 mph - 0.04 in Rain Heavy Rain
8:20 PM 66.2 °F 66.2 °F 100% 29.88 in 3.0 mi SSE 8.1 mph - 0.25 in Rain Light Rain
8:53 PM 66.9 °F 66.9 °F 100% 29.87 in 3.0 mi Variable 3.5 mph - 0.29 in Rain Rain
9:53 PM 66.9 °F 66.0 °F 97% 29.86 in 7.0 mi South 8.1 mph - 0.05 in Rain Light Rain
10:53 PM 69.1 °F 66.0 °F 90% 29.86 in 10.0 mi South 9.2 mph - 0.00 in   Overcast
11:53 PM 68.0 °F 66.9 °F 96% 29.88 in 10.0 mi South 8.1 mph - 0.02 in   Overcast